This is the latest recevied weather packets stored in our database for station/object K8JMX-13. If no packets are shown the sender has not sent any weather packets the latest 10 day(s).
| Time | Temp. | Humidity | Pressure | Rain* | Wind** | Luminosity | Snow |
|---|---|---|---|---|---|---|---|
| 1777902514 | 13.89° C | 58% | 1008.8 hPa | 0 mm | - | 85 W/m² | - |
| 1777902210 | 13.89° C | 58% | 1008.8 hPa | 0 mm | - | 77 W/m² | - |
| 1777901908 | 13.89° C | 59% | 1008.9 hPa | 0 mm | - | 68 W/m² | - |
| 1777901606 | 13.89° C | 58% | 1008.6 hPa | 0 mm | - | 100 W/m² | - |
| 1777901303 | 13.89° C | 58% | 1008.8 hPa | 0 mm | - | 91 W/m² | - |
| 1777901000 | 13.89° C | 58% | 1008.8 hPa | 0 mm | - | 86 W/m² | - |
| 1777900698 | 13.33° C | 59% | 1008.8 hPa | 0 mm | - | 182 W/m² | - |
| 1777900395 | 13.33° C | 58% | 1008.5 hPa | 0 mm | - | 142 W/m² | - |
| 1777900092 | 12.78° C | 59% | 1008.5 hPa | 0 mm | - | 108 W/m² | - |
| 1777899788 | 12.78° C | 59% | 1008.8 hPa | 0 mm | - | 52 W/m² | - |
| 1777899485 | 12.78° C | 59% | 1008.6 hPa | 0 mm | - | 50 W/m² | - |
| 1777899182 | 12.78° C | 60% | 1008.5 hPa | 0 mm | - | 59 W/m² | - |
| 1777898880 | 12.22° C | 61% | 1008.6 hPa | 0 mm | - | 54 W/m² | - |
| 1777898577 | 12.22° C | 60% | 1008.6 hPa | 0 mm | - | 49 W/m² | - |
| 1777898274 | 11.67° C | 61% | 1008.8 hPa | 0 mm | - | 41 W/m² | - |
| 1777897972 | 11.67° C | 61% | 1008.6 hPa | 0 mm | - | 45 W/m² | - |
| 1777897667 | 11.67° C | 61% | 1008.5 hPa | 0 mm | - | 41 W/m² | - |
| 1777897364 | 11.67° C | 61% | 1008.6 hPa | 0 mm | - | 42 W/m² | - |
| 1777897060 | 11.67° C | 61% | 1008.6 hPa | 0 mm | - | 43 W/m² | - |
| 1777896756 | 11.67° C | 61% | 1008.8 hPa | 0 mm | - | 51 W/m² | - |
| 1777896454 | 11.67° C | 61% | 1008.9 hPa | 0 mm | - | 46 W/m² | - |
| 1777896151 | 11.67° C | 61% | 1008.6 hPa | 0 mm | - | 46 W/m² | - |
| 1777895849 | 11.67° C | 61% | 1008.6 hPa | 0 mm | - | 60 W/m² | - |
| 1777895546 | 11.11° C | 62% | 1008.9 hPa | 0 mm | - | 78 W/m² | - |
| 1777895244 | 11.11° C | 62% | 1008.6 hPa | 0 mm | - | 39 W/m² | - |
* Rain latest hour (hover to see other rain measurements)
** Current wind speed in m/s (hover to see current wind gust speed)